Follow iAlert.com on twitter @ialertcom
Search For Active Alerts in Your Area  
  Hi Guest:  [ Sign-up / Services ] [ Login ]

Current weather by "City, St" or "zip code"  
 

Advertise Here

Current Conditions: Doylestown, Doylestown Airport, PA

Fair


82.0 F

Last Updated on Sep 21 2017, 4:54 pm EDT
Humidity: 53%
Wind Speed: NE 3.5 mph
Barometer 30.00 in
Dewpoint: 63.0 F
Visibility: 10.00 mi
Precip: --
Heat Index: 83 F
Wind Chill: NA
Current conditions at:

Doylestown, Doylestown Airport, PA (KDYL)

Lat: 40.33 Lon: 75.122

Local Radar Image active severe weather and emergency alerts image image weather storm and storm spotter reports image weather observation monitoring service image
Local
Radar
Active
Alerts
Storm Reports Obs
Monitoring

iAlert Weather and Emergency Alert Notification Services:


ialert severe weather and emergency alerts by text message and email ialert daily weather forecast by email and text message service ialert real-time weather-observation monitoring and alert notification service ialert storm report monitoring alert notification

Observation History for Doylestown, Doylestown Airport, PA


Time Wind
(mph)
Vis
(mi)
Weather Precip (in) Temperature (F) Relative
Humidity
Wind
Chill
(°F)
Heat
Index
(°F)
Pressure
Air Dwpt altimeter
(in)
sea level
(mb)
4:54 pm EDT NE 3.5 10.00 Fair -- 82.0 63.0 53% NA 83 30.00 1015.5
3:54 pm EDT NE 6.9 10.00 Fair -- 84.0 64.0 51% NA 85 30.00 1015.2
2:54 pm EDT 4.6 10.00 Fair -- 85.0 63.0 48% NA 86 30.01 1015.5
1:54 pm EDT N 9.2 10.00 Fair -- 86.0 63.0 46% NA 87 30.01 1015.6
12:54 pm EDT NE 5.8 10.00 A Few Clouds -- 84.0 64.0 51% NA 85 30.03 1016.2
11:54 am EDT N 6.9 10.00 A Few Clouds -- 83.0 64.9 55% NA 85 30.04 1016.7
10:54 am EDT N 8.1 10.00 Fair -- 80.0 64.9 60% NA 82 30.05 1017.0
9:54 am EDT NE 9.2 10.00 Fair -- 77.0 64.9 66% NA NA 30.05 1017.1
8:54 am EDT 5.8 10.00 Fair -- 74.0 64.0 71% NA NA 30.04 1016.8
7:54 am EDT N 0.0 10.00 Fair -- 68.0 62.1 81% NA NA 30.04 1016.8
6:54 am EDT N 4.6 10.00 Fair -- 67.0 62.1 84% NA NA 30.04 1016.6
5:54 am EDT N 3.5 10.00 Mostly Cloudy -- 68.0 62.1 81% NA NA 30.02 1016.0
4:54 am EDT N 0.0 10.00 Fair -- 65.0 62.1 90% NA NA 30.00 1015.2
3:54 am EDT N 0.0 10.00 Fair -- 64.0 63.0 96% NA NA 29.98 1014.6
2:54 am EDT N 0.0 10.00 Fair -- 64.0 63.0 96% NA NA 29.98 1014.7
1:54 am EDT N 0.0 10.00 Fair -- 65.0 64.0 97% NA NA 29.98 1014.6
12:54 am EDT N 0.0 10.00 Fair -- 66.0 64.0 93% NA NA 29.97 1014.4
11:54 pm EDT N 0.0 10.00 Fair -- 67.0 64.0 91% NA NA 29.97 1014.5
10:54 pm EDT N 0.0 10.00 A Few Clouds -- 68.0 64.0 87% NA NA 29.97 1014.4
9:54 pm EDT N 0.0 10.00 Fair -- 70.0 64.0 82% NA NA 29.96 1014.0
8:54 pm EDT N 0.0 10.00 Fair -- 70.0 64.9 84% NA NA 29.94 1013.3
7:54 pm EDT N 0.0 10.00 Fair -- 73.0 64.9 76% NA NA 29.94 1013.2
6:54 pm EDT NE 5.8 10.00 Fair -- 78.0 64.0 62% NA NA 29.92 1012.8
5:54 pm EDT NE 6.9 10.00 Fair -- 82.0 64.0 55% NA 83 29.91 1012.2

Regional Weather Observation


Allentown, Lehigh Valley International Airport, PA (KABE)

Fair
87.0 F

Allentown Queen City Municipal Airport, PA (KXLL)

Fair
86.0 F

Doylestown, Doylestown Airport, PA (KDYL)

Fair
82.0 F

Pottstown, Pottstown Limerick Airport, PA (KPTW)

Fair
84.0 F

Philadelphia, Northeast Philadelphia Airport, PA (KPNE)

Fair
84.0 F

Reading, Reading Regional Airport, PA (KRDG)

A Few Clouds
86.0 F

Advertise Here